Theta_e
343 343 344 344 343 344 344 344 344 345 344 344 344 344 344 344 344 344 344 343 343 342 341 340 341 341 341 341 341 340 339 338 338 338 338 337 335 335 335 334 334 333
344 345 345 344 344 344 344 344 344 344 345 345 345 345 345 345 344 344 344 344 343 342 342 342 341 340 341 342 341 340 339 338 338 338 337 337 336 335 334 334 334 334
345 346 345 344 344 345 345 344 344 344 345 345 345 346 345 345 344 344 344 344 343 343 343 343 342 341 341 341 341 340 339 338 338 337 337 337 336 335 334 333 333 334
346 346 345 344 344 345 345 344 344 344 345 345 345 346 345 345 344 343 343 343 343 343 343 343 342 341 341 341 341 340 339 338 338 337 337 337 336 336 335 333 333 333
347 347 346 345 345 345 345 345 344 344 344 345 345 345 345 344 344 343 343 343 342 342 343 342 342 340 340 340 340 339 338 338 337 336 336 335 336 336 334 334 333 332
347 347 346 345 345 345 345 345 345 344 345 345 345 345 345 344 343 343 343 342 342 342 342 341 341 340 340 339 339 338 337 337 336 335 335 335 334 333 333 332 332 331
348 347 346 346 345 345 345 345 345 344 344 344 345 345 345 343 343 343 342 342 342 342 342 341 341 340 339 338 337 337 336 336 335 334 334 333 332 331 331 331 331 330
348 347 346 346 346 346 345 345 345 344 344 344 345 345 344 344 343 343 342 342 342 341 341 341 340 340 339 338 337 336 336 335 335 334 333 332 331 330 329 329 329 328
348 348 347 347 346 346 345 345 345 344 344 344 344 344 344 344 343 342 342 342 341 341 341 340 340 339 338 337 337 336 335 335 334 333 332 331 330 329 328 327 327 326
349 348 348 347 347 346 346 345 345 344 344 344 344 344 344 343 343 342 341 341 341 341 340 340 339 338 338 337 336 335 335 334 333 332 331 330 328 327 326 326 325 326
349 348 348 348 348 347 346 346 345 345 344 343 343 343 343 343 342 341 341 341 341 340 340 339 338 338 337 336 335 334 334 333 332 331 329 327 325 325 325 324 324 325
349 349 347 347 348 347 347 346 346 345 344 343 343 343 342 342 342 341 340 341 340 340 339 338 338 337 337 336 334 334 334 332 331 330 328 325 324 324 324 323 323 323
349 349 348 348 348 348 347 347 346 345 344 344 343 342 342 342 341 340 340 340 340 339 339 338 337 337 336 335 334 334 333 332 331 329 326 324 324 323 322 321 321 321
349 348 348 348 348 348 347 347 347 345 344 344 343 342 342 341 340 340 339 340 340 339 338 337 336 336 335 335 334 333 332 331 330 327 324 323 323 321 320 319 319 319
349 348 348 348 347 347 348 347 347 345 344 344 343 342 342 341 340 340 340 339 339 338 337 336 336 335 335 334 334 333 332 331 329 325 322 322 321 319 319 318 318 317
349 348 347 348 348 348 348 347 346 346 344 344 343 342 341 340 340 340 340 339 338 337 336 336 336 335 334 333 333 333 332 330 327 323 322 321 320 319 319 318 317 317
348 348 347 348 348 347 348 347 346 346 345 344 343 342 341 340 340 340 340 339 338 337 336 336 335 335 334 333 333 333 331 329 326 323 321 320 320 320 318 316 316 316
347 348 348 347 347 347 347 347 346 346 345 344 343 342 342 340 340 340 340 339 338 337 337 336 335 335 334 333 332 332 330 328 325 322 321 321 321 319 317 316 316 315
347 347 348 347 347 347 347 347 346 346 345 344 343 342 341 341 340 340 340 339 337 337 336 336 335 334 334 333 332 331 328 326 324 321 320 321 320 318 317 316 315 314
345 347 347 347 347 347 347 347 346 346 345 343 343 342 341 341 341 340 340 339 337 336 336 335 335 334 333 333 331 328 326 325 323 321 320 320 319 318 317 316 314 314
343 344 344 346 347 347 346 346 346 345 344 343 343 342 342 341 340 340 340 339 337 336 336 335 334 333 333 333 330 327 325 324 322 321 320 320 319 317 317 315 314 314
343 342 341 343 346 346 346 346 346 345 344 343 343 342 342 341 340 340 339 338 337 336 335 334 333 333 333 333 330 328 326 323 322 321 320 319 318 317 316 315 313 314
345 344 342 344 346 346 346 346 345 345 344 343 342 342 342 341 340 340 339 338 337 336 335 334 333 332 332 331 330 329 326 323 321 320 319 318 318 316 315 315 313 313
343 345 345 346 346 346 346 346 345 344 343 342 342 342 341 340 339 339 338 337 336 335 334 333 332 332 331 330 329 328 326 322 320 320 319 318 317 316 315 314 314 313
340 343 345 346 346 346 345 345 344 343 343 342 341 341 341 339 339 338 337 336 336 335 334 332 331 331 330 329 328 327 325 322 320 320 319 317 317 316 315 315 314 314
338 340 340 342 345 345 345 344 343 342 342 342 341 341 340 339 338 337 337 336 335 334 333 332 332 331 329 328 328 327 325 322 319 319 318 317 316 316 315 315 314 314
Wind_Speed
31 31 30 29 29 29 30 30 28 29 32 31 30 30 31 30 30 30 28 27 26 25 24 23 23 22 20 19 19 19 21 22 21 22 21 20 19 18 17 17 16 13
33 32 31 29 29 29 31 30 28 29 31 31 30 29 30 30 29 30 28 26 26 26 24 23 23 23 21 20 19 20 21 22 22 21 21 21 20 18 16 15 17 17
33 33 33 31 29 29 31 31 28 28 29 30 30 28 28 29 29 30 29 27 26 26 24 23 22 23 22 21 21 20 20 21 22 20 18 19 18 16 15 14 16 18
34 34 34 33 30 29 31 31 29 29 29 29 30 29 28 29 29 30 29 27 27 26 25 23 23 23 22 22 22 21 20 20 20 19 17 15 15 15 15 14 15 17
35 34 34 35 32 30 32 33 30 29 29 29 30 29 28 29 30 30 29 28 27 25 24 24 23 23 22 22 22 22 21 20 19 19 18 15 15 16 14 13 13 15
35 35 34 35 34 32 33 33 30 30 30 29 29 29 28 29 30 29 29 29 27 25 24 24 23 22 23 22 21 22 22 20 18 18 18 16 15 14 13 13 14 15
35 36 35 35 35 33 33 33 31 30 30 29 29 29 27 28 29 28 29 29 27 25 24 24 23 23 23 23 21 21 20 19 18 17 17 16 14 14 14 15 15 15
35 37 36 35 35 33 33 33 32 31 31 30 29 29 27 27 28 28 28 28 27 25 25 24 24 23 23 23 22 21 20 19 18 19 18 17 16 17 17 16 16 16
36 37 37 35 34 34 34 33 32 31 31 31 30 29 28 27 28 28 28 28 26 26 25 25 25 24 24 24 23 22 21 20 19 19 20 19 17 17 16 16 17 18
38 37 36 35 33 34 34 34 32 31 31 31 30 29 28 28 27 27 28 27 27 26 26 26 26 25 25 25 23 22 22 21 19 18 19 19 17 17 17 17 19 19
39 38 37 37 34 33 34 34 32 32 32 31 31 30 29 29 28 27 28 28 27 28 27 27 27 26 25 24 23 23 22 22 20 18 18 19 18 18 19 19 19 19
40 39 38 38 35 33 34 34 32 32 32 31 31 31 30 30 29 28 28 28 28 28 28 27 27 27 26 25 24 23 23 22 21 20 19 19 19 19 19 19 20 20
40 39 38 37 36 34 34 33 32 33 33 32 32 32 31 31 30 29 29 29 29 29 28 28 28 27 26 26 25 24 24 22 21 22 20 19 20 20 19 19 19 20
39 39 38 37 37 35 34 33 32 33 33 32 33 33 32 32 30 29 29 30 30 29 28 28 28 27 26 27 26 25 25 24 21 21 20 19 20 20 19 19 19 19
37 37 36 36 36 35 35 34 33 33 33 32 33 34 33 31 30 29 29 30 29 29 29 28 29 29 28 27 26 25 25 25 23 22 21 20 20 20 19 19 18 18
36 37 35 35 36 35 35 36 34 33 33 32 33 34 33 32 31 30 30 31 30 29 29 28 29 31 30 29 28 26 26 26 23 22 21 20 21 20 20 19 18 18
35 36 35 35 36 36 36 36 34 34 34 32 32 33 34 34 32 31 31 31 30 29 29 29 29 31 31 30 29 28 28 27 24 23 22 22 22 21 21 21 19 19
32 34 34 34 35 35 36 36 34 34 34 33 32 33 34 34 33 31 31 32 31 30 31 30 30 31 30 29 29 28 29 28 24 23 24 23 23 22 22 22 20 20
31 33 34 35 35 35 36 37 35 33 34 35 33 33 33 33 33 32 32 33 33 32 31 30 30 32 30 29 29 29 30 29 24 24 25 24 23 23 23 24 22 21
30 32 34 35 36 34 35 37 36 34 35 35 33 33 33 33 33 33 32 33 33 31 30 30 32 34 32 31 31 29 28 27 23 23 25 24 24 24 23 25 24 22
30 31 33 34 35 35 34 35 35 34 35 35 33 33 34 32 32 33 32 32 32 30 30 31 33 34 34 34 34 31 28 25 21 22 25 23 24 25 24 26 26 23
30 30 31 33 34 34 33 33 34 35 35 35 33 33 33 31 31 33 32 32 32 31 30 31 33 33 33 36 37 33 30 27 22 22 25 23 23 25 24 25 26 23
31 30 30 32 33 33 33 34 35 35 36 35 33 32 32 31 32 32 32 32 32 32 31 32 33 34 33 37 39 36 34 32 25 22 24 23 23 24 24 23 25 24
30 31 32 32 32 32 33 34 35 35 36 36 34 32 31 32 32 31 30 30 32 33 33 31 33 35 36 38 40 38 37 36 27 22 23 24 22 24 23 22 24 24
30 31 32 32 33 34 34 34 34 35 36 36 34 32 30 31 32 31 29 30 31 32 32 32 32 35 38 40 41 38 38 37 29 22 23 24 23 23 23 22 22 24
28 27 27 29 32 34 35 35 35 34 34 35 34 32 30 30 32 32 29 30 31 31 32 33 34 37 41 42 41 38 38 37 30 23 24 25 23 24 24 22 22 24
Wind_Direction
195 202 205 201 197 195 191 191 189 183 183 185 187 189 189 190 190 190 192 192 192 191 193 196 195 193 193 196 201 200 196 193 191 195 197 196 199 204 205 201 200 203
197 199 201 201 198 195 191 192 190 184 184 185 187 189 190 190 189 190 191 190 191 191 191 194 196 195 194 194 198 198 194 193 194 199 201 198 197 196 195 199 206 208
200 199 198 199 198 194 190 191 192 187 185 186 188 189 189 189 189 190 191 190 189 191 192 194 195 195 194 194 196 196 194 196 197 199 203 205 204 200 196 198 207 210
203 199 197 198 198 194 189 191 193 190 187 188 190 191 189 188 189 189 190 190 189 191 193 195 195 194 194 193 195 193 191 197 200 197 199 207 206 201 201 204 204 205
204 199 195 196 197 194 188 190 193 191 189 189 190 191 190 188 188 188 188 188 189 191 194 196 196 194 193 193 195 192 190 194 199 197 196 201 204 201 200 201 200 200
203 200 196 194 195 193 188 189 193 192 190 189 188 189 189 188 187 186 187 188 188 190 194 196 195 194 193 191 192 192 193 197 198 197 195 195 198 200 200 201 201 201
200 198 197 196 195 193 188 188 192 193 191 188 187 188 188 187 186 186 188 188 188 190 193 194 194 194 193 191 191 191 193 197 197 195 195 196 202 205 206 207 204 202
199 196 197 197 195 191 188 188 191 192 190 187 186 187 189 188 187 187 188 188 187 188 190 192 193 194 192 191 191 190 191 192 192 192 194 202 210 207 208 216 214 210
198 195 196 196 193 190 187 187 190 191 188 186 185 186 189 190 190 188 187 187 187 187 188 189 191 193 193 193 192 190 190 190 190 192 198 207 211 206 209 216 212 209
199 194 193 194 193 190 187 187 189 189 187 185 184 186 188 189 190 188 187 187 187 187 188 188 190 192 194 194 194 192 192 191 189 191 197 206 208 203 207 208 202 203
199 194 191 193 193 190 187 187 188 187 186 184 183 184 186 188 190 189 188 190 189 188 188 190 191 192 193 194 195 197 195 192 193 195 199 202 202 200 202 202 197 198
197 192 190 192 192 189 188 187 186 185 185 185 183 182 184 188 191 193 192 192 192 190 189 191 190 191 194 196 197 199 197 195 197 201 201 200 199 199 200 198 195 194
195 191 190 190 189 187 188 187 185 185 185 185 184 182 184 187 191 195 196 194 193 192 192 191 191 192 194 196 200 199 196 197 198 197 197 198 197 197 198 196 194 193
193 191 190 190 188 186 186 186 186 186 185 186 186 184 184 186 190 195 198 195 194 193 193 193 192 192 193 195 200 199 195 200 200 192 192 196 195 194 196 196 194 193
192 192 191 189 188 185 184 186 187 186 186 186 187 186 185 185 190 195 197 195 195 195 194 193 192 193 193 195 200 199 195 198 198 190 190 194 192 192 194 194 192 193
190 191 192 190 188 186 184 185 187 187 186 187 188 187 186 185 191 197 195 194 196 196 195 194 193 194 195 196 202 204 198 196 194 189 191 194 191 190 191 190 190 193
190 189 191 191 189 187 185 185 187 187 186 188 188 188 186 186 191 196 194 192 195 195 196 196 193 192 194 195 201 205 198 195 194 190 193 195 191 189 188 186 188 193
190 189 190 191 190 187 185 185 186 186 186 186 188 190 188 187 191 194 192 191 194 196 198 197 193 192 192 192 200 206 199 193 190 189 193 195 191 190 188 184 187 192
191 190 190 191 191 188 185 186 186 185 185 186 188 191 190 188 192 194 193 192 194 197 198 195 192 193 193 194 203 209 200 189 186 189 193 193 191 191 189 186 188 191
193 193 193 192 192 189 185 186 187 185 185 185 188 190 190 190 193 194 194 194 194 195 193 192 192 193 193 198 203 203 194 184 183 190 193 192 192 192 190 188 190 192
197 195 195 193 191 188 186 185 186 186 185 185 188 190 191 192 193 193 195 194 194 193 191 191 193 192 193 197 198 197 192 185 185 191 192 192 192 193 193 192 191 194
198 197 196 193 190 188 187 186 185 186 186 186 188 190 192 193 192 193 194 195 195 194 191 192 193 193 195 198 198 199 197 190 188 192 192 191 193 193 194 194 193 194
197 195 193 192 191 188 186 186 186 186 185 186 187 188 190 192 192 192 193 194 194 193 191 192 193 194 198 200 198 199 197 190 189 192 190 191 193 192 193 194 194 195
198 195 191 189 190 191 188 186 186 185 184 186 186 187 190 191 190 190 191 193 193 193 193 194 193 194 198 199 197 196 194 190 189 191 190 190 191 191 193 194 194 196
200 194 192 190 189 191 190 188 186 185 185 186 186 188 191 191 189 190 192 195 196 195 197 198 195 194 197 197 195 194 192 189 188 191 190 188 188 188 190 193 195 196
199 191 193 196 194 191 190 189 186 185 185 186 187 189 190 189 189 190 193 198 199 198 200 202 200 197 196 196 194 193 192 188 188 192 190 186 185 186 187 191 195 196